Location: The Saddle
(36.8333°N, 80.3417°W)
Time: 09:27:51
(UTC-04:00)

A-11 Canister half - Pass Details

Date: 05 June 2024
Orbit: 1515 x 1685 km, 47.2° (Epoch: 17 June)

Event Time Altitude Azimuth Distance (km) Brightness Sun altitude
Rises 21:13:03 0° 197° (SSW) 4,908 11.5 -6.8°
Reaches altitude 10° 21:16:42 10° 187° (S) 3,909 10.9 -7.4°
Maximum altitude 21:25:06 32° 129° (SE) 2,550 9.6 -8.7°
Drops below altitude 10° 21:33:16 10° 72° (ENE) 3,818 10.8 -10.0°
Sets 21:36:45 0° 63° (ENE) 4,780 11.3 -10.6°
